This demonstration page uses our WeatherBlox Daily Observations layout. Learn more.

Left ArrowRight Arrow

34.74481, -87.66753

Hourly Observations for July 15, 2020

Temp ( °F °C ) Dew Point ( °F °C ) Humidity (%) Winds ( mph kmh ) Pressure ( in mb ) Visibility ( mi km ) Precip ( " mm )
12:53 am 00:53 Clear 73 22.8 69 20.6 87 87 Calm 29.98 1015 10 16 0.00 0.00
1:53 am 01:53 Clear 72 22.2 69 20.6 91 91 Calm 29.98 1015 10 16 0.00 0.00
2:53 am 02:53 Clear 72 22.2 69 20.6 91 91 Calm 29.98 1015 10 16 0.00 0.00
3:53 am 03:53 Clear 72 22.2 69 20.6 91 91 Calm 29.99 1016 10 16 0.00 0.00
4:53 am 04:53 Clear 72 22.2 69 20.6 91 91 Calm 29.99 1016 10 16 0.00 0.00
5:53 am 05:53 Sunny 72 22.2 69 20.6 91 91 Calm 30.01 1016 10 16 0.00 0.00
6:09 am 06:09 Sunny with Mist and Fog 72 22.2 69 20.6 91 91 Calm 30.02 1017 2 3 0.00 0.00
6:14 am 06:14 Sunny with Mist and Fog 72 22.2 69 20.6 91 91 Calm 30.02 1017 3 5 0.00 0.00
6:53 am 06:53 Sunny 74 23.3 70 21.1 88 88 Calm 30.02 1017 10 16 0.00 0.00
7:53 am 07:53 Sunny 78 25.6 72 22.2 82 82 Calm 30.04 1017 10 16 0.00 0.00
8:53 am 08:53 Mostly Cloudy 82 27.8 73 22.8 74 74 ESE 3 6 30.05 1018 10 16 0.00 0.00
9:53 am 09:53 Sunny 86 30 72 22.2 63 63 SSE 5 7 30.05 1018 10 16 0.00 0.00
10:53 am 10:53 Sunny 89 31.7 70 21.1 53 53 VRB 3 6 30.05 1018 10 16 0.00 0.00
11:53 am 11:53 Sunny 92 33.3 69 20.6 47 47 VRB 3 6 30.04 1017 10 16 0.00 0.00
12:53 pm 12:53 Sunny 91 32.8 70 21.1 50 50 VRB 5 7 30.03 1017 10 16 0.00 0.00
1:53 pm 13:53 Partly Cloudy 94 34.4 71 21.7 48 48 Calm 30.01 1016 10 16 0.00 0.00
2:53 pm 14:53 Partly Cloudy 92 33.3 72 22.2 52 52 ESE 7 11 29.98 1015 10 16 0.00 0.00
3:53 pm 15:53 Sunny 94 34.4 70 21.1 46 46 ESE 6 9 29.96 1015 10 16 0.00 0.00
4:53 pm 16:53 Sunny 93 33.9 72 22.2 50 50 E 6 9 29.96 1015 10 16 0.00 0.00
5:53 pm 17:53 Sunny 93 33.9 72 22.2 50 50 ESE 6 9 29.96 1015 10 16 0.00 0.00
6:53 pm 18:53 Sunny 91 32.8 73 22.8 56 56 SE 5 7 29.96 1014 10 16 0.00 0.00
7:53 pm 19:53 Sunny 86 30 75 23.9 70 70 SE 5 7 29.97 1015 10 16 0.00 0.00
8:53 pm 20:53 Clear 85 29.4 74 23.3 70 70 SSE 5 7 29.98 1015 10 16 0.00 0.00
9:53 pm 21:53 Clear 82 27.8 76 24.4 82 82 ESE 3 6 29.97 1015 10 16 0.00 0.00
10:53 pm 22:53 Clear 83 28.3 74 23.3 74 74 SSW 8 13 29.99 1016 10 16 0.00 0.00
11:53 pm 23:53 Clear 81 27.2 73 22.8 77 77 S 3 6 30.01 1016 10 16 0.00 0.00

Powered by AerisWeather